SES-15

Last updated on Wed Oct 29 2025 00:02:49 GMT+0000 (Coordinated Universal Time)

1 42709U 17026A 25300.52437994 .00000071 00000+0 00000+0 0 9997 2 42709 0.0299 1.1289 0000134 154.1094 300.5319 1.00269069 5107
UTC large
Height (km)
Speed (km/s)
/
Latitude / Longitude
Inclination (degrees)
Orbital Period (minutes)
Azimuth
Elevation
Range (km)
Doppler Factor

Next 0 passes for location: London (51.5072 / 0.1276)

Sorry there are no passes over London.